Burlington, VT

1:14 AM EST on November 21, 2019 (GMT -0500)
Burlington International

Weather History for KBTV - October, 2019

Change the Weather History Date:

Wednesday, October 23, 2019

  Actual Average Record
Temperature  
Mean Temperature 57 °F 46 °F  
Max Temperature 62 °F 54 °F 78 °F (1979)
Min Temperature 51 °F 37 °F 20 °F (1961)
Degree Days  
Heating Degree Days 8 19  
Month to date heating degree days 304 357  
Since 1 July heating degree days 418 574  
Cooling Degree Days 0 0  
Month to date cooling degree days 0 0  
Year to date cooling degree days 606 489  
Growing Degree Days 6 (Base 50)    
Moisture  
Dew Point 45 °F    
Average Humidity 66    
Maximum Humidity 97    
Minimum Humidity 34    
Precipitation  
Precipitation 0.22 in 0.12 in 1.45 in (1999)
Month to date precipitation 4.34 2.72  
Year to date precipitation 34.34 30.43  
Sea Level Pressure  
Sea Level Pressure 29.87 in    
Wind  
Wind Speed 6 mph (SW)    
Max Wind Speed 20 mph    
Max Gust Speed 26 mph    
Visibility 8 miles    
Events Fog , Rain    
T = Trace of Precipitation, MM = Missing Value Source: NWS Daily Summary

Daily Weather History Graph

Daily Weather History Graph

Search for Another Location

Airport or City:

Astronomy

Oct. 23, 2019 Rise Set
Actual Time 7:17 AM EDT 5:55 PM EDT
Civil Twilight 6:47 AM EDT 6:25 PM EDT
Nautical Twilight 6:14 AM EDT 6:59 PM EDT
Astronomical Twilight 5:40 AM EDT 7:32 PM EDT
Moon 1:15 AM EDT (10/23) 3:59 PM EDT (10/23)
Length of Visible Light 11h 37m
Length of Day
10h 37m
Waning Crescent, 27% of the Moon is Illuminated
Oct 23
Waning Crescent
Oct 27
New
Nov 4
First Quarter
Nov 12
Full
Nov 19
Last Quarter

Hourly Weather History & Observations

Time (EDT) Temp. Dew Point Humidity Pressure Visibility Wind Dir Wind Speed Gust Speed Precip Events Conditions
12:54 AM 53.1 °F 50.0 °F 89% 29.80 in 9.0 mi West 6.9 mph - 0.01 in Rain Light Rain
1:15 AM 53.1 °F 50.0 °F 89% 29.81 in 5.0 mi West 8.1 mph - 0.00 in Rain Light Rain
1:54 AM 53.1 °F 51.1 °F 93% 29.82 in 3.0 mi SSW 4.6 mph - 0.07 in Rain Light Rain
2:16 AM 53.1 °F 51.1 °F 93% 29.81 in 3.0 mi ESE 8.1 mph - 0.07 in Rain Rain
2:54 AM 53.1 °F 52.0 °F 96% 29.81 in 6.0 mi SE 3.5 mph - 0.11 in Rain Light Rain
3:54 AM 53.1 °F 51.1 °F 93% 29.79 in 4.0 mi ESE 4.6 mph - 0.04 in Rain Light Rain
4:05 AM 53.1 °F 51.1 °F 93% 29.79 in 10.0 mi SE 5.8 mph - 0.00 in Rain Light Rain
4:12 AM 53.1 °F 51.1 °F 93% 29.79 in 10.0 mi SSE 4.6 mph - 0.00 in   Overcast
4:54 AM 53.1 °F 51.1 °F 93% 29.81 in 10.0 mi Calm Calm - 0.00 in   Overcast
5:54 AM 53.1 °F 51.1 °F 93% 29.82 in 10.0 mi Calm Calm - 0.00 in   Overcast
6:54 AM 52.0 °F 50.0 °F 93% 29.82 in 1.5 mi Calm Calm - 0.00 in   Overcast
7:04 AM 52.0 °F 51.1 °F 97% 29.81 in 6.0 mi Calm Calm - N/A   Overcast
7:54 AM 51.1 °F 48.9 °F 92% 29.83 in 7.0 mi Calm Calm - N/A Fog Patches of Fog
8:52 AM 53.6 °F 51.8 °F 94% 29.83 in 7.0 mi SSW 3.5 mph - N/A Fog Patches of Fog
8:54 AM 54.0 °F 51.1 °F 90% 29.83 in 7.0 mi SSW 4.6 mph - N/A Fog Patches of Fog
9:09 AM 54.0 °F 52.0 °F 93% 29.83 in 10.0 mi SSW 3.5 mph - N/A Fog Patches of Fog
9:46 AM 55.9 °F 51.1 °F 84% 29.83 in 10.0 mi Calm Calm - N/A   Scattered Clouds
9:54 AM 55.9 °F 51.1 °F 84% 29.84 in 10.0 mi Calm Calm - N/A   Scattered Clouds
10:54 AM 59.0 °F 48.0 °F 67% 29.84 in 10.0 mi SSW 4.6 mph - N/A   Scattered Clouds
11:54 AM 60.1 °F 45.0 °F 57% 29.84 in 10.0 mi WSW 9.2 mph - N/A   Partly Cloudy
12:54 PM 61.0 °F 37.9 °F 42% 29.84 in 10.0 mi WSW 8.1 mph - N/A   Mostly Cloudy
1:54 PM 60.1 °F 39.0 °F 46% 29.84 in 10.0 mi West 9.2 mph - N/A   Mostly Cloudy
2:54 PM 60.1 °F 37.0 °F 42% 29.85 in 10.0 mi West 10.4 mph 19.6 mph 0.00 in   Mostly Cloudy
3:54 PM 59.0 °F 37.0 °F 44% 29.87 in 10.0 mi West 8.1 mph - N/A   Scattered Clouds
4:54 PM 60.1 °F 32.0 °F 35% 29.89 in 10.0 mi West 12.7 mph 19.6 mph N/A   Scattered Clouds
5:54 PM 55.9 °F 33.1 °F 42% 29.92 in 10.0 mi West 5.8 mph - N/A   Partly Cloudy
6:54 PM 55.9 °F 36.0 °F 47% 29.97 in 10.0 mi WNW 9.2 mph - N/A   Mostly Cloudy
7:54 PM 52.0 °F 39.0 °F 61% 30.00 in 10.0 mi NW 8.1 mph - N/A   Partly Cloudy
8:54 PM 55.0 °F 37.0 °F 51% 30.03 in 10.0 mi West 9.2 mph 17.3 mph N/A   Overcast
9:54 PM 54.0 °F 36.0 °F 51% 30.05 in 10.0 mi WSW 4.6 mph - N/A   Overcast
10:54 PM 54.0 °F 37.0 °F 53% 30.06 in 10.0 mi SW 4.6 mph - N/A   Overcast
11:54 PM 54.0 °F 36.0 °F 51% 30.06 in 10.0 mi WSW 10.4 mph - N/A   Overcast